Weather History for West Palm Beach, FL

Change the Weather History Date:

Friday, March 28, 2014

  Actual Average Record
Temperature  
Mean Temperature 78 °F 72 °F  
Max Temperature 83 °F 80 °F 91 °F (1909)
Min Temperature 73 °F 63 °F 47 °F (2013)
Degree Days  
Heating Degree Days 0 0  
Month to date heating degree days 7 22  
Since 1 July heating degree days 122 227  
Cooling Degree Days 13 7  
Month to date cooling degree days 184 172  
Year to date cooling degree days 530 407  
Growing Degree Days 27 (Base 50)    
Moisture  
Dew Point 62 °F    
Average Humidity 65    
Maximum Humidity 79    
Minimum Humidity 51    
Precipitation  
Precipitation 0.00 in 0.14 in 3.65 in (1982)
Month to date precipitation 1.71 4.14  
Year to date precipitation 13.19 10.09  
Snow  
Snow 0.00 in - - ()
Month to date snowfall 0.0  
Since 1 July snowfall 0.0  
Snow Depth 0.00 in    
Sea Level Pressure  
Sea Level Pressure 30.13 in    
Wind  
Wind Speed 17 mph (SE)    
Max Wind Speed 26 mph    
Max Gust Speed 38 mph    
Visibility 10 miles    
Events      
T = Trace of Precipitation, MM = Missing Value Source: NWS Daily Summary

Daily Weather History Graph

Daily Weather History Graph

Search for Another Location

Airport:

Trip Planner

Search our weather history database for the weather conditions in past years. The results will help you decide how hot, cold, wet, or windy it might be!

Date:

Astronomy

Mar. 28, 2014 Rise Set
Actual Time 7:15 AM EDT 7:35 PM EDT
Civil Twilight 6:52 AM EDT 7:58 PM EDT
Nautical Twilight 6:25 AM EDT 8:26 PM EDT
Astronomical Twilight 5:57 AM EDT 8:53 PM EDT
Moon 5:32 AM EDT (3/28) 5:40 PM EDT (3/28)
Length of Visible Light 13h 06m
Length of Day
12h 20m
Waning Crescent, 6% of the Moon is Illuminated
Mar 28
Waning Crescent
Mar 30
New
Apr 7
First Quarter
Apr 15
Full
Apr 22
Last Quarter

Hourly Weather History & Observations

Time (EDT) Temp. Heat Index Dew Point Humidity Pressure Visibility Wind Dir Wind Speed Gust Speed Precip Events Conditions
12:53 AM 73.0 °F - 59.0 °F 61% 30.19 in 10.0 mi ESE 18.4 mph 27.6 mph N/A   Mostly Cloudy
1:53 AM 73.0 °F - 57.9 °F 59% 30.17 in 10.0 mi SE 17.3 mph - N/A   Mostly Cloudy
2:53 AM 73.0 °F - 57.9 °F 59% 30.16 in 10.0 mi SE 12.7 mph - N/A   Mostly Cloudy
3:53 AM 73.0 °F - 55.9 °F 55% 30.14 in 10.0 mi ESE 15.0 mph - N/A   Mostly Cloudy
4:53 AM 73.0 °F - 59.0 °F 61% 30.13 in 10.0 mi SE 13.8 mph - N/A   Mostly Cloudy
5:53 AM 73.0 °F - 60.1 °F 64% 30.13 in 10.0 mi SE 16.1 mph - N/A   Mostly Cloudy
6:53 AM 73.0 °F - 60.1 °F 64% 30.14 in 10.0 mi ESE 17.3 mph - N/A   Mostly Cloudy
7:53 AM 73.9 °F - 61.0 °F 64% 30.16 in 10.0 mi SE 13.8 mph - N/A   Mostly Cloudy
8:53 AM 75.0 °F - 61.0 °F 62% 30.16 in 10.0 mi SE 17.3 mph - N/A   Mostly Cloudy
9:53 AM 78.1 °F - 61.0 °F 56% 30.16 in 10.0 mi SE 21.9 mph 29.9 mph N/A   Mostly Cloudy
10:53 AM 79.0 °F - 61.0 °F 54% 30.17 in 10.0 mi SE 24.2 mph 31.1 mph N/A   Scattered Clouds
11:53 AM 81.0 °F 81.7 °F 61.0 °F 50% 30.17 in 10.0 mi SE 23.0 mph 27.6 mph N/A   Scattered Clouds
12:53 PM 81.0 °F 81.9 °F 62.1 °F 52% 30.14 in 10.0 mi SSE 19.6 mph 31.1 mph N/A   Mostly Cloudy
1:53 PM 80.1 °F 81.5 °F 63.0 °F 56% 30.13 in 10.0 mi SE 19.6 mph 29.9 mph N/A   Mostly Cloudy
2:53 PM 80.1 °F 81.5 °F 63.0 °F 56% 30.11 in 10.0 mi SE 20.7 mph 28.8 mph N/A   Mostly Cloudy
3:53 PM 79.0 °F - 63.0 °F 58% 30.09 in 10.0 mi SE 18.4 mph - N/A   Scattered Clouds
4:53 PM 78.1 °F - 63.0 °F 60% 30.07 in 10.0 mi SE 21.9 mph - N/A   Scattered Clouds
5:53 PM 77.0 °F - 64.0 °F 64% 30.06 in 10.0 mi SE 17.3 mph - N/A   Mostly Cloudy
6:53 PM 75.9 °F - 64.9 °F 69% 30.08 in 10.0 mi SE 16.1 mph - N/A   Mostly Cloudy
7:53 PM 75.9 °F - 66.0 °F 71% 30.09 in 10.0 mi SE 15.0 mph - N/A   Mostly Cloudy
8:53 PM 75.0 °F - 66.0 °F 73% 30.09 in 10.0 mi SE 12.7 mph - N/A   Mostly Cloudy
9:53 PM 75.9 °F - 66.0 °F 71% 30.09 in 10.0 mi SE 13.8 mph - N/A   Mostly Cloudy
10:53 PM 75.9 °F - 66.9 °F 74% 30.09 in 10.0 mi SE 15.0 mph - N/A   Mostly Cloudy
11:53 PM 75.9 °F - 68.0 °F 76% 30.09 in 10.0 mi SE 12.7 mph - N/A   Mostly Cloudy